User: anonymous   Login
Location: ?????
(30.2541°N, 31.0910°E)
Time: 17:45:29
(UTC+00:00)
Language:

FALCON 9 R/B - Orbit

View from above orbital plane
View from above orbital plane
View from above satellite
View from above satellite

Ground track
Ground track

The orbit data is extracted from the following two-line orbital elements,

1 37253U 10066K   23028.05325849  .00009022  00000-0  85677-3 0  9993
2 37253  34.5039 126.5541 4191246  30.8531 348.2198  7.05416873303469
Epoch (UTC): 28 January 2023 01:16:41
Eccentricity: 0.4191246
inclination: 34.5039°
perigee height: 293 km
apogee height: 9919 km
right ascension of ascending node: 126.5541°
argument of perigee: 30.8531°
revolutions per day: 7.05416873
mean anomaly at epoch: 348.2198°
orbit number at epoch: 30346

The dashed part of the orbit path shows where the satellite is in the earth's shadow,  

DLR